Regional Weather Roundup
Issued by NWS Bismarck, ND

Current Version | Previous Version | Text Only | Print | Product List | Glossary On
Versions: 1 2 3 4 5 6 7 8 9 10 11 12 13 14 15 16 17 18 19 20 21 22 23 24 25 26 27 28 29 30 31 32 33 34 35 36 37 38 39 40 41 42 43 44 45 46 47 48 49 50
000
ASUS43 KBIS 262110
RWRBIS

NWR BROADCAST TEXT
NATIONAL WEATHER SERVICE BISMARCK ND
300 PM CST SUN FEB 26 2017

NOTE: "FAIR" INDICATES FEW OR NO CLOUDS BELOW 12,000 FEET WITH NO
SIGNIFICANT WEATHER AND/OR OBSTRUCTIONS TO VISIBILITY.


CITY           SKY/WX    TMP DP  RH WIND       PRES   REMARKS
WILLISTON      FAIR      23  14  68 NW7       29.77S WCI  15
MINOT          FAIR      22  10  60 VRB7      29.76F WCI  13
MINOT AFB      FAIR      21  11  63 SW8       29.76F WCI  12
BISMARCK       CLOUDY    23  17  78 E8        29.78F HAZE    WCI  14
DICKINSON      PTSUNNY   28  21  75 N14       29.68R WCI  17
GARRISON         N/A     22  14  71 CALM      29.76F
HETTINGER ARPT FLURRIES  33  23  66 W20       29.71S
JAMESTOWN      CLOUDY    22  11  62 W6        29.80F WCI  14
CARRINGTON     CLOUDY    16  12  86 NW5       29.83S WCI   9
HAZEN          CLOUDY   N/A N/A N/A NE6       29.79S
MANDAN         CLOUDY    23  18  80 E7        29.76F WCI  15
RUGBY            N/A     10   9  92 S5        29.79S WCI   2
STANLEY        FAIR      19  16  86 SW8       29.75F WCI   9
TIOGA          FAIR      18  16  93 W8        29.75S WCI   7
WATFORD CITY   CLOUDY    23  16  74 N7        29.76S WCI  15
$$

CITY           SKY/WX    TMP DP  RH WIND       PRES   REMARKS
GRAND FORKS    FAIR      19   5  54 SW14      29.86S WCI   6
GRAND FORKS AF FAIR      20   7  58 W10       29.86R WCI   9
DEVILS LAKE    FAIR      13  10  88 SW5       29.81F WCI   5
FARGO            N/A     20   9  62 MISG      29.89R
CAVALIER         N/A     19   7  58 SW9       29.82R WCI   9
GRAFTON        FAIR      19  10  68 SW14      29.86S WCI   6
GWINNER        CLOUDY    23  18  80 S3        29.85S
ROLLA          FAIR      16   9  73 SW12      29.75S WCI   3
$$

CITY           SKY/WX    TMP DP  RH WIND       PRES   REMARKS
ABERDEEN       CLOUDY    29  18  63 SE5       29.83F
MOBRIDGE       FAIR      39  21  48 N6        29.72F
BUFFALO          N/A     36  18  48 NW22      29.64S
RAPID CITY     FAIR      37  14  38 N6        29.75S
GLASGOW        LGT SNOW  25  17  72 N15       29.78R WCI  13
SIDNEY         FAIR      27  17  66 N12       29.77S WCI  17
WOLF POINT     CLOUDY    29  16  58 NW15      29.78S WCI  18
GLENDIVE       CLOUDY    27  18  69 NW17      29.75S WCI  14
MILES CITY     PTSUNNY   36  15  42 NW16      29.74S
BAKER          CLOUDY    32  19  58 NW23G33   29.71R WCI  19
$$

CITY           SKY/WX    TMP DP  RH WIND       PRES   REMARKS
BILLINGS       PTSUNNY   36  11  35 W6G20     29.69F
GREAT FALLS    LGT SNOW  22  15  75 N15       29.74S WCI   9
REGINA         PTSUNNY   23   7  50 NW14      29.73S WCI  11
ESTEVAN        LGT SNOW  21  16  79 SW12G18   29.73S VSB 3/4 WCI   9
$$





USA.gov is the U.S. government's official web portal to all federal, state and local government web resources and services.